EW9053 Weather Reports


Display with metric or nautical units.
time (UTC)temp
F
wind
direction
speed
MPH
gust
MPH
rain 1hr
in
rain 24hr
in
rain mn
in
humidity
%
barometer
mb
20240624121745 79 189 0.0 0.0 0.00 0.00 0.00 79 1006.9
20240624121243 79 189 0.0 0.0 0.00 0.00 0.00 80 1006.9
20240624120742 79 189 0.0 0.0 0.00 0.00 0.00 80 1006.8
20240624120240 79 189 0.0 0.0 0.00 0.00 0.00 80 1006.8
20240624115241 78 189 0.0 0.0 0.00 0.00 0.00 80 1006.8
20240624114741 78 189 0.0 0.0 0.00 0.00 0.00 80 1006.8
20240624114238 78 189 0.0 0.0 0.00 0.00 0.00 80 1006.8
20240624113238 78 189 0.0 0.0 0.00 0.00 0.00 80 1006.8
20240624112737 78 189 0.0 0.0 0.00 0.00 0.00 81 1006.8
20240624112241 78 189 0.0 0.0 0.00 0.00 0.00 80 1006.8
20240624111740 78 189 0.0 0.0 0.00 0.00 0.00 81 1006.8
20240624111234 78 246 0.0 0.0 0.00 0.00 0.00 80 1006.7
20240624110733 78 250 0.0 0.0 0.00 0.00 0.00 80 1006.6
20240624105230 78 250 0.0 0.0 0.00 0.00 0.00 80 1006.5
20240624104733 78 250 0.0 0.0 0.00 0.00 0.00 80 1006.5
20240624104230 78 251 0.0 1.0 0.00 0.00 0.00 80 1006.5
20240624103729 78 251 0.0 1.0 0.00 0.00 0.00 80 1006.3
20240624103229 78 251 0.0 1.0 0.00 0.00 0.00 80 1006.3
20240624102730 78 251 0.0 0.0 0.00 0.00 0.00 80 1006.3
20240624102230 78 251 0.0 0.0 0.00 0.00 0.00 80 1006.4
20240624101729 78 251 0.0 0.0 0.00 0.00 0.00 80 1006.4
20240624101231 78 251 0.0 0.0 0.00 0.00 0.00 80 1006.3
20240624100731 78 251 0.0 1.0 0.00 0.00 0.00 79 1006.3
20240624095731 79 251 0.0 0.0 0.00 0.00 0.00 79 1006.2
20240624095230 79 251 0.0 0.0 0.00 0.00 0.00 79 1006.1
20240624094233 79 251 0.0 1.0 0.00 0.00 0.00 79 1006.1
20240624093731 79 252 0.0 1.0 0.00 0.00 0.00 79 1006.0
20240624093230 79 273 0.0 1.0 0.00 0.00 0.00 78 1006.0
20240624092729 79 273 0.0 0.0 0.00 0.00 0.00 78 1006.0
20240624092229 79 276 0.0 2.0 0.00 0.00 0.00 78 1006.0
20240624091730 79 276 0.0 2.0 0.00 0.00 0.00 78 1005.9
20240624091228 79 269 0.0 0.0 0.00 0.00 0.00 78 1005.9
20240624090730 79 267 0.0 0.0 0.00 0.00 0.00 78 1005.8
20240624090230 79 266 0.0 2.0 0.00 0.00 0.00 78 1005.8
20240624085729 79 266 0.0 2.0 0.00 0.00 0.00 78 1005.8
20240624085229 79 189 0.0 1.0 0.00 0.00 0.00 78 1005.8
20240624084730 79 98 0.0 1.0 0.00 0.00 0.00 78 1005.9
20240624084229 79 240 0.0 0.0 0.00 0.00 0.00 78 1005.9
20240624083732 79 244 0.0 0.0 0.00 0.00 0.00 78 1005.9
20240624082731 79 263 0.0 1.0 0.00 0.00 0.00 78 1005.9
20240624081232 79 288 0.0 1.0 0.00 0.00 0.00 79 1006.0
20240624080736 79 292 0.0 1.0 0.00 0.00 0.00 79 1006.0
20240624080231 78 291 0.0 0.0 0.00 0.00 0.00 79 1006.1
20240624075731 78 290 0.0 1.0 0.00 0.00 0.00 79 1006.2
20240624074729 78 286 0.0 0.0 0.00 0.00 0.00 78 1006.2
20240624074231 78 286 0.0 0.0 0.00 0.00 0.00 78 1006.2
20240624073730 79 286 0.0 0.0 0.00 0.00 0.00 78 1006.2
20240624072731 79 286 0.0 0.0 0.00 0.00 0.00 77 1006.3
20240624072231 79 286 0.0 0.0 0.00 0.00 0.00 76 1006.2
20240624071731 79 285 0.0 0.0 0.00 0.00 0.00 76 1006.2
20240624070732 79 284 0.0 0.0 0.00 0.00 0.00 76 1006.4
20240624070229 79 284 0.0 0.0 0.00 0.00 0.00 76 1006.6
20240624065232 80 284 0.0 0.0 0.00 0.00 0.00 75 1006.5
20240624064733 80 284 0.0 0.0 0.00 0.00 0.00 75 1006.5
20240624064236 80 284 0.0 0.0 0.00 0.00 0.00 75 1006.6
20240624063732 80 284 0.0 0.0 0.00 0.00 0.00 74 1006.5
20240624063232 80 284 0.0 0.0 0.00 0.00 0.00 74 1006.5
20240624062230 80 283 0.0 0.0 0.00 0.00 0.00 73 1006.7
20240624061730 80 283 0.0 0.0 0.00 0.00 0.00 73 1006.7
20240624061230 80 283 0.0 0.0 0.00 0.00 0.00 72 1006.7
20240624060731 81 283 0.0 0.0 0.00 0.00 0.00 73 1006.7
20240624060230 81 283 0.0 1.0 0.00 0.00 0.00 72 1006.6
20240624055230 81 283 0.0 0.0 0.00 0.00 0.00 72 1006.7
20240624054729 81 283 0.0 1.0 0.00 0.00 0.00 72 1006.6
20240624054229 81 283 0.0 1.0 0.00 0.00 0.00 72 1006.7
20240624053729 81 283 0.0 0.0 0.00 0.00 0.00 72 1006.8
20240624053229 81 283 0.0 0.0 0.00 0.00 0.00 72 1006.7
20240624052232 81 286 0.0 0.0 0.00 0.00 0.00 72 1006.8
20240624051734 81 286 0.0 0.0 0.00 0.00 0.00 71 1006.9
20240624051236 82 286 0.0 0.0 0.00 0.00 0.00 71 1006.8
20240624050734 82 286 0.0 0.0 0.00 0.00 0.00 71 1006.8
20240624050231 82 286 0.0 0.0 0.00 0.00 0.00 71 1006.8
20240624045729 82 286 0.0 0.0 0.00 0.00 0.00 70 1006.8
20240624044727 82 286 0.0 0.0 0.00 0.00 0.00 70 1006.8
20240624044227 82 286 0.0 2.0 0.00 0.00 0.00 69 1006.9
20240624043724 82 286 0.0 2.0 0.00 0.00 0.00 69 1007.0
20240624043221 82 290 0.0 0.0 0.00 0.00 0.00 69 1007.1
20240624042720 83 290 0.0 0.0 0.00 0.00 0.00 69 1007.0
20240624042220 83 290 0.0 0.0 0.00 0.00 0.00 69 1007.0
20240624041719 83 290 0.0 0.0 0.00 0.00 0.00 69 1006.9
20240624041218 83 290 0.0 0.0 0.00 0.00 0.00 69 1007.0
20240624040716 83 290 0.0 0.0 0.00 0.00 0.00 69 1007.0
20240624040214 83 290 0.0 1.0 0.00 0.00 0.00 69 1006.9
20240624035710 83 290 0.0 1.0 0.00 0.00 0.00 68 1006.9
20240624035211 83 290 0.0 1.0 0.00 0.00 0.00 69 1007.0
20240624034711 83 290 0.0 1.0 0.00 0.00 0.00 69 1007.0
20240624034212 83 59 0.0 0.0 0.00 0.00 0.00 69 1007.0
20240624033709 83 59 0.0 0.0 0.00 0.00 0.00 69 1007.0
20240624033209 83 59 0.0 0.0 0.00 0.00 0.00 70 1007.2
20240624032709 83 59 0.0 0.0 0.00 0.00 0.00 69 1007.1
20240624032207 83 60 0.0 0.0 0.00 0.00 0.00 69 1007.1
20240624031708 83 59 0.0 0.0 0.00 0.00 0.00 69 1007.2
20240624031208 83 68 0.0 0.0 0.00 0.00 0.00 69 1007.1
20240624030710 83 68 0.0 0.0 0.00 0.00 0.00 69 1007.0
20240624030208 83 68 0.0 0.0 0.00 0.00 0.00 69 1007.1
20240624025708 84 68 0.0 0.0 0.00 0.00 0.00 69 1007.0
20240624025208 84 68 0.0 0.0 0.00 0.00 0.00 69 1007.0
20240624024710 84 68 0.0 0.0 0.00 0.00 0.00 69 1007.0
20240624024212 84 68 0.0 0.0 0.00 0.00 0.00 69 1007.1
20240624023709 84 68 0.0 0.0 0.00 0.00 0.00 68 1007.1
20240624023208 84 68 0.0 0.0 0.00 0.00 0.00 68 1007.1
20240624022208 84 68 0.0 0.0 0.00 0.00 0.00 68 1007.2
20240624021202 85 68 0.0 0.0 0.00 0.00 0.00 68 1007.3
20240624020704 85 68 0.0 0.0 0.00 0.00 0.00 68 1007.2
20240624015702 85 68 0.0 0.0 0.00 0.00 0.00 67 1007.1
20240624015201 85 68 0.0 0.0 0.00 0.00 0.00 67 1007.1
20240624014648 85 68 0.0 0.0 0.00 0.00 0.00 67 1007.0
20240624014151 85 68 0.0 0.0 0.00 0.00 0.00 67 1007.1
20240624013645 85 68 0.0 0.0 0.00 0.00 0.00 67 1007.0
20240624012646 85 68 0.0 0.0 0.00 0.00 0.00 67 1007.0
20240624012144 85 68 0.0 0.0 0.00 0.00 0.00 66 1006.9
20240624011646 86 68 0.0 0.0 0.00 0.00 0.00 66 1006.8
20240624011143 86 68 0.0 0.0 0.00 0.00 0.00 65 1006.8
20240624010644 86 68 0.0 0.0 0.00 0.00 0.00 65 1006.7
20240624005638 87 68 0.0 0.0 0.00 0.00 0.00 63 1006.7
20240624004638 88 68 0.0 0.0 0.00 0.00 0.00 62 1006.6
20240624004137 88 68 0.0 0.0 0.00 0.00 0.00 61 1006.6
20240624003639 88 68 0.0 0.0 0.00 0.00 0.00 61 1006.7
20240624003138 88 68 0.0 0.0 0.00 0.00 0.00 61 1006.7
20240624002634 88 68 0.0 0.0 0.00 0.00 0.00 61 1006.7
20240624001132 89 68 0.0 0.0 0.00 0.00 0.00 59 1006.7
20240624000631 89 68 0.0 0.0 0.00 0.00 0.00 59 1006.7
20240624000131 89 68 0.0 0.0 0.00 0.00 0.00 58 1006.7
20240623235632 89 68 0.0 0.0 0.00 0.00 0.00 58 1006.7
20240623235130 89 68 0.0 0.0 0.00 0.00 0.00 58 1006.6
20240623234631 89 67 0.0 0.0 0.00 0.00 0.00 57 1006.6
20240623234130 89 67 0.0 1.0 0.00 0.00 0.00 57 1006.6
20240623233631 89 67 0.0 1.0 0.00 0.00 0.00 57 1006.6
20240623233128 89 69 0.0 1.0 0.00 0.00 0.00 57 1006.5
20240623232630 89 66 0.0 0.0 0.00 0.00 0.00 59 1006.6
20240623232132 90 74 0.0 0.0 0.00 0.00 0.00 58 1006.5
20240623231630 90 74 0.0 0.0 0.00 0.00 0.00 57 1006.5
20240623230630 91 74 0.0 2.0 0.00 0.00 0.00 56 1006.5
20240623230128 91 40 0.0 2.0 0.00 0.00 0.00 56 1006.4
20240623225130 91 106 0.0 2.0 0.00 0.00 0.00 55 1006.4
20240623224629 91 105 0.0 3.0 0.00 0.00 0.00 55 1006.4
20240623224125 91 98 0.0 3.0 0.00 0.00 0.00 56 1006.4
20240623223617 91 90 0.0 2.0 0.00 0.00 0.00 55 1006.4
20240623223114 91 196 0.0 2.0 0.00 0.00 0.00 56 1006.5
20240623222613 91 279 0.0 2.0 0.00 0.00 0.00 57 1006.4
20240623222113 91 325 0.0 2.0 0.00 0.00 0.00 56 1006.5
20240623221611 91 175 0.0 1.0 0.00 0.00 0.00 55 1006.5
20240623220610 92 130 0.0 2.0 0.00 0.00 0.00 55 1006.6
20240623220112 92 121 0.0 2.0 0.00 0.00 0.00 54 1006.6
20240623215610 92 113 0.0 2.0 0.00 0.00 0.00 55 1006.7
20240623214610 92 91 0.0 2.0 0.00 0.00 0.00 55 1006.7
20240623214110 93 92 0.0 2.0 0.00 0.00 0.00 53 1006.8
20240623213109 93 232 0.0 2.0 0.00 0.00 0.00 51 1007.0
20240623212607 94 113 0.0 3.0 0.00 0.00 0.00 49 1007.0
20240623212104 94 292 0.0 4.0 0.00 0.00 0.00 50 1007.0
20240623211602 94 269 0.0 4.0 0.00 0.00 0.00 50 1007.1
20240623211102 94 268 1.0 3.0 0.00 0.00 0.00 52 1007.1
20240623210602 94 283 0.0 3.0 0.00 0.00 0.00 50 1007.3
20240623205605 93 173 0.0 0.0 0.00 0.00 0.00 54 1007.4
20240623205101 93 173 0.0 2.0 0.00 0.00 0.00 52 1007.5
20240623204601 92 111 0.0 2.0 0.00 0.00 0.00 54 1007.5
20240623204100 92 107 0.0 2.0 0.00 0.00 0.00 55 1007.6
20240623203601 91 67 0.0 1.0 0.00 0.00 0.00 55 1007.7
20240623203101 91 131 0.0 2.0 0.00 0.00 0.00 56 1007.7
20240623202602 91 138 0.0 2.0 0.00 0.00 0.00 57 1007.8
20240623202102 90 158 0.0 0.0 0.00 0.00 0.00 58 1007.8
20240623201602 91 288 0.0 2.0 0.00 0.00 0.00 56 1007.9
20240623201102 91 169 0.0 2.0 0.00 0.00 0.00 58 1007.9
20240623200601 91 171 0.0 2.0 0.00 0.00 0.00 56 1007.9
20240623200102 92 269 0.0 2.0 0.00 0.00 0.00 55 1008.0
20240623195103 92 203 0.0 2.0 0.00 0.00 0.00 57 1008.2
20240623194604 92 110 0.0 2.0 0.00 0.00 0.00 58 1008.3
20240623194100 91 270 0.0 2.0 0.00 0.00 0.00 54 1008.3
20240623193608 92 198 0.0 2.0 0.00 0.00 0.00 55 1008.4
20240623193104 92 269 0.0 2.0 0.00 0.00 0.00 54 1008.5
20240623192558 92 240 0.0 2.0 0.00 0.00 0.00 54 1008.6
20240623192101 92 113 0.0 1.0 0.00 0.00 0.00 55 1008.6
20240623191558 92 120 0.0 2.0 0.00 0.00 0.00 54 1008.7
20240623191056 92 275 0.0 2.0 0.00 0.00 0.00 57 1008.8
20240623190559 91 295 0.0 3.0 0.00 0.00 0.00 59 1008.9
20240623190055 91 246 0.0 3.0 0.00 0.00 0.00 59 1009.0
20240623185554 90 103 0.0 2.0 0.00 0.00 0.00 61 1009.1
20240623184550 91 291 0.0 4.0 0.00 0.00 0.00 60 1009.3
20240623184054 91 308 0.0 2.0 0.00 0.00 0.00 62 1009.4
20240623183048 91 120 0.0 3.0 0.00 0.00 0.00 61 1009.6
20240623182046 91 136 0.0 2.0 0.00 0.00 0.00 62 1009.7
20240623181547 90 76 0.0 4.0 0.00 0.00 0.00 63 1009.8
20240623181046 90 297 0.0 4.0 0.00 0.00 0.00 60 1009.8
20240623180549 90 264 0.0 2.0 0.00 0.00 0.00 63 1009.9
20240623180050 90 265 0.0 2.0 0.00 0.00 0.00 58 1010.1
20240623175543 90 265 0.0 2.0 0.00 0.00 0.00 60 1010.1
20240623175044 90 242 0.0 2.0 0.00 0.00 0.00 62 1010.1
20240623174541 89 342 0.0 1.0 0.00 0.00 0.00 62 1010.1
20240623174040 89 71 0.0 1.0 0.00 0.00 0.00 64 1010.2
20240623173041 89 111 0.0 3.0 0.00 0.00 0.00 65 1010.3
20240623172540 89 108 0.0 2.0 0.00 0.00 0.00 65 1010.4
20240623172041 89 248 0.0 2.0 0.00 0.00 0.00 66 1010.5
20240623171540 89 125 0.0 3.0 0.00 0.00 0.00 67 1010.6
20240623171042 88 104 0.0 3.0 0.00 0.00 0.00 67 1010.6
20240623170538 89 84 0.0 2.0 0.00 0.00 0.00 67 1010.7
20240623170039 89 79 0.0 3.0 0.00 0.00 0.00 65 1010.8
20240623165039 88 296 0.0 3.0 0.00 0.00 0.00 69 1010.9
20240623164538 87 281 0.0 3.0 0.00 0.00 0.00 71 1011.0
20240623163538 87 270 0.0 2.0 0.00 0.00 0.00 70 1011.3
20240623163037 87 65 0.0 1.0 0.00 0.00 0.00 70 1011.4
20240623162539 87 275 0.0 3.0 0.00 0.00 0.00 70 1011.5
20240623162039 87 288 0.0 3.0 0.00 0.00 0.00 70 1011.5
20240623161537 87 279 0.0 2.0 0.00 0.00 0.00 71 1011.5
20240623161038 86 242 0.0 1.0 0.00 0.00 0.00 72 1011.6
20240623155538 85 238 0.0 1.0 0.00 0.00 0.00 73 1011.7
20240623155037 85 260 0.0 1.0 0.00 0.00 0.00 74 1011.7
20240623154538 85 262 0.0 1.0 0.00 0.00 0.00 75 1011.7
20240623154039 84 313 0.0 0.0 0.00 0.00 0.00 75 1011.8
20240623153537 84 346 0.0 0.0 0.00 0.00 0.00 75 1011.8
20240623153037 84 113 0.0 1.0 0.00 0.00 0.00 76 1011.8
20240623152037 83 141 0.0 1.0 0.00 0.00 0.00 76 1011.8
20240623151536 83 271 0.0 2.0 0.00 0.00 0.00 76 1011.8
20240623151035 83 269 0.0 2.0 0.00 0.00 0.00 79 1011.8
20240623150037 82 109 0.0 2.0 0.00 0.00 0.00 78 1011.9
20240623145540 82 261 0.0 2.0 0.00 0.00 0.00 78 1011.9
20240623145035 82 120 0.0 1.0 0.00 0.00 0.00 81 1011.8
20240623144532 81 262 0.0 1.0 0.00 0.00 0.00 81 1011.9
20240623144029 81 286 0.0 2.0 0.00 0.00 0.00 81 1012.0
20240623143529 81 115 0.0 2.0 0.00 0.00 0.00 80 1011.9
20240623143029 81 302 0.0 2.0 0.00 0.00 0.00 81 1011.8
20240623141531 81 252 0.0 1.0 0.00 0.00 0.00 82 1011.9
20240623141030 80 263 0.0 1.0 0.00 0.00 0.00 82 1011.9
20240623140530 80 44 0.0 2.0 0.00 0.00 0.00 83 1011.9
20240623140030 80 65 0.0 2.0 0.00 0.00 0.00 84 1012.0
20240623135533 80 36 0.0 2.0 0.00 0.00 0.00 85 1012.0
20240623135036 80 52 0.0 2.0 0.00 0.00 0.00 84 1012.0
20240623134529 79 42 0.0 2.0 0.00 0.00 0.00 85 1012.1
20240623134028 79 281 0.0 2.0 0.00 0.00 0.00 85 1012.1
20240623133529 79 182 0.0 2.0 0.00 0.00 0.00 86 1012.1
20240623133030 79 155 0.0 2.0 0.00 0.00 0.00 86 1012.1
20240623132030 78 124 0.0 2.0 0.00 0.00 0.00 87 1012.2
20240623131029 78 107 0.0 2.0 0.00 0.00 0.00 88 1012.3
20240623130530 78 105 0.0 2.0 0.00 0.00 0.00 88 1012.2
20240623130030 78 106 0.0 2.0 0.00 0.00 0.00 89 1012.2
20240623125528 77 106 0.0 2.0 0.00 0.00 0.00 89 1012.4
20240623125029 77 106 0.0 2.0 0.00 0.00 0.00 90 1012.4
20240623124532 77 104 0.0 2.0 0.00 0.00 0.00 90 1012.0
20240623124029 77 57 0.0 2.0 0.00 0.00 0.00 90 1012.4
20240623123530 77 349 0.0 2.0 0.00 0.00 0.00 90 1012.5
20240623123030 77 157 0.0 2.0 0.00 0.00 0.00 91 1012.5
20240623122530 76 158 0.0 2.0 0.00 0.00 0.00 91 1012.5
20240623122030 76 159 0.0 2.0 0.00 0.00 0.00 91 1012.5